World > North America > United States > Ohio

Seal, Ohio Regional Weather

Lat: 40.88N, Lon: 83.15W
Wx Zone: OHZ027Web Search

Pass this page to a friend. Tell them to point their camera at the QR Code near the bottom of this page.

Feedback


°F Click to change Seal hourly weather to Imperial units.Click to change Seal hourly weather to Metric units. °C
Seal Weather Map
UTC Time: 5/15/2021, 04:01
Your Time:

Seal, OH Regional Weather

Expires:202105150500;;132351
ASUS41 KCLE 150400
RWRCLE
OHIO REGIONAL WEATHER ROUNDUP
NATIONAL WEATHER SERVICE WILMINGTON, OH
1200 AM EDT SAT MAY 15 2021

NOTE: "FAIR" INDICATES FEW OR NO CLOUDS BELOW 12,000 FEET WITH NO
SIGNIFICANT WEATHER AND/OR OBSTRUCTIONS TO VISIBILITY.


OHZ001>008-015>018-024>027-034-035-043-044-150500-
   NORTHWEST OHIO
  
CITY           SKY/WX    TMP DP  RH WIND       PRES   REMARKS
DEFIANCE       FAIR      51  39  63 S3        30.25S                  
FINDLAY        FAIR      53  40  61 S3        30.25S                  
TOLEDO EXPRESS FAIR      50  34  54 CALM      30.24F                  
TOLEDO EXEC    FAIR      54  32  43 CALM      30.25F                  
LIMA           FAIR      50  38  63 CALM      30.26S                  
$$
 

SKY/WX - Weather  TMP - Temperature  DP - Dew Point  RH - Relative Humidity
WIND - Wind Direction/Speed PRES - Barometric Pressure VSB - Visibility
WCI - Wind Chill Index E13G22 Wind - East Wind 13 mph/Gusts of 22 mph